+ View the NASA Portal
+ Center for Near-Earth Object Studies
IMPORTANT:
The SSD Announcement email list is now available. Major changes are coming in the near future, including possible hostname and/or URL changes. To be notified of such changes, subscribe to this email list.
Please visit
this page
for more details.
Don't show this message again
JPL Small-Body Database Browser
Search:
[
help
]
277978 (2006 TB55)
Classification:
Main-belt Asteroid
SPK-ID:
2277978
[
Ephemeris
|
Orbit Diagram
|
Orbital Elements
|
Mission Design
|
Physical Parameters
|
Discovery Circumstances
]
[ show orbit diagram ]
Orbital Elements at Epoch 2458600.5 (2019-Apr-27.0) TDB
Reference:
JPL 11
(heliocentric ecliptic J2000)
Element
Value
Uncertainty (1-sigma)
Units
e
.2666868757978202
8.0087e-08
a
2.594116676081743
3.247e-08
au
q
1.902299804282477
2.2391e-07
au
i
12.60354912615808
7.181e-06
deg
node
190.5841031393874
3.792e-05
deg
peri
178.8609843802383
4.4436e-05
deg
M
14.04232502092355
2.8276e-05
deg
t
p
2458540.972285953409
(2019-Feb-26.47228595)
0.00011894
TDB
period
1526.098920573426
4.18
2.8652e-05
7.844e-08
d
yr
n
.2358955865486959
4.4289e-09
deg/d
Q
3.285933547881009
4.1129e-08
au
Orbit Determination Parameters
# obs. used (total)
181
data-arc span
5381 days (14.73 yr)
first obs. used
2001-06-11
last obs. used
2016-03-05
planetary ephem.
DE431
SB-pert. ephem.
SB431-N16
condition code
0
norm. resid. RMS
.55934
source
ORB
producer
Otto Matic
solution date
2017-Apr-10 16:11:52
Additional Information
Earth MOID
= .901132 au
Jupiter MOID
= 2.17591 au
T_jup
= 3.334
[ show covariance matrix ]
[
Ephemeris
|
Orbit Diagram
|
Orbital Elements
|
Mission Design
|
Physical Parameters
|
Discovery Circumstances
]
Physical Parameter Table
Parameter
Symbol
Value
Units
Sigma
Reference
Notes
absolute magnitude
H
17.1
n/a
MPO300249
277978 (2006 TB55)
Discovered 2006-Oct-12 by NEAT at Palomar
Reference:
20110517/Numbers.arc
Last Updated:
2011-05-20
[
Ephemeris
|
Orbit Diagram
|
Orbital Elements
|
Mission Design
|
Physical Parameters
|
Discovery Circumstances
]
2019-Dec-15 13:09 UT
(server date/time)
Site Manager:
Ryan S. Park
Webmaster
:
Alan B. Chamberlin